Find Starlink 36888

NORAD ID: 68004 Int'l Des: 2026-039 Owner: SPXS Country: US Constellation: starlink operational
LEOCIRCULAR

Live-Position

3D-Globus wird geladen...

Über Starlink 36888

Beschreibung wird geladen...

Nächste Überflüge

Passes for default location (London). Set your location on the main map for personalized predictions.

Höhenverlauf

Loading altitude history...

Zweizeiliger Elementsatz

1 68004U 26039U 26105.59788767 .00014501 00000-0 52171-3 0 9999
2 68004 43.0028 200.8744 0001628 277.5335 82.5332 15.28436030 7340
Epoch: 15. Apr. 2026 • Age: 18 hours

Aktueller Status

Höhe 492.5 km
Geschwindigkeit 7.62 km/s
Subsatellitenpunkt -42.55°S, 119.13°E
Startdatum 27. Feb. 2026
Alter 0.1 years
Typ internet

Technische Details

Klassifizierung Payload
Masse 575.00 kg
Trockenmasse 530.00 kg
Gesamtmasse 575.00 kg
Länge 0.30 m
Durchmesser 4.10 m
Spannweite 29.00 m
Form Box + pan
Hersteller SPXS
Bus-Typ Starlink V2MO
Phasenstatus In Orbit
Besitzer/Staat SPXS/US

Most Searched